Starlink 3952

operational
NORAD ID: 52534 Int'l Des: 2022-051 Owner: SPXS Country: US Constellation: starlink
LEOCIRCULAR

Starlink 3952について

説明を読み込み中...

リアルタイム位置

3D地球を読み込み中...

次回通過

高度履歴

Altitude vs Time

uPlot chart will show altitude changes over time

軌道要素

1 52534U 22051B 25302.88962510 .00000158 00000-0 28023-4 0 9993
2 52534 53.2187 356.3041 0001381 86.1942 273.9208 15.08840182192439
Epoch: Oct 29, 2025 • Age: 7 hours

現在のステータス

高度 545.0 km
速度 7.59 km/s
衛星直下点 -17.86°S, 81.01°E
打ち上げ日 May 13, 2022
運用期間 3.4 years
タイプ internet

技術仕様

分類 Payload
質量 297.00 kg
乾燥質量 275.00 kg
総質量 297.00 kg
長さ 0.20 m
直径 2.80 m
スパン 9.00 m
形状 Box + pan
製造者 SPXS
バスタイプ Starlink
フェーズステータス In Orbit
所有者/国 SPXS/US

大規模コンステレーション

Loading constellations...